Flag for Czech Republic Weather past 2 weeks in Prague, Czech Republic

Now
32 °F

Clear.


Feels Like: 22 °F
Forecast: 32 / 45 °F
Wind: 14 mph from Southwest

Location: Prague Ruzyne Airport

Current Time: Mar 5, 2015 at 5:32:15 AM

Latest Report: Mar 5, 2015 at 5:00 AM


Visibility: 10 mi

Pressure: 30.30 "Hg

Humidity: 80%

Dew point: 27 °F

Location of PragueLocation

Historic Weather in Prague — Graph

°F

Prague temperature yesterday

Maximum temperature yesterday: 45 °F (at 1:00 PM)
Minimum temperature yesterday: 34 °F (at 4:00 AM)
Average temperature yesterday: 39 °F

Past Weeks' High & Low Weather Summary

 TemperatureHumidityPressure
High50 °F (Feb 20, 2:00 PM)100% (Mar 2, 1:30 AM)30.72 "Hg (Mar 2, 1:30 AM)
Low23 °F (Feb 20, 4:30 AM)37% (Mar 4, 1:00 PM)29.47 "Hg (Feb 21, 4:00 PM)
Average36 °F76%29.96 "Hg
* Reported Feb 18 4:00 AM — Mar 5 4:00 AM, Prague, Weather by CustomWeather, © 2015

Note: Actual official high and low records may vary slightly from our data, if they occured in-between our weather recording intervals... More about our weather records

Advertising

Prague weather history for previous 24 hours

 ConditionsComfort  
Time TempWeatherWind HumidityBarometerVisibility
4:00 AM
Thu, Mar 5
32 °FPassing clouds.13 mph80%30.30 "HgN/A
3:00 AM32 °FPassing clouds.13 mph75%30.30 "HgN/A
2:30 AM32 °FClear.14 mph75%30.30 "Hg10 mi
2:00 AM32 °FClear.14 mph75%30.30 "Hg10 mi
1:30 AM32 °FClear.12 mph75%30.30 "Hg10 mi
1:00 AM32 °FClear.10 mph75%30.30 "Hg10 mi
12:30 AM32 °FClear.12 mph75%30.27 "Hg10 mi
12:00 AM34 °FClear.13 mph70%30.27 "Hg10 mi
11:30 PM
Wed, Mar 4
36 °FClear.14 mph65%30.27 "Hg10 mi
10:00 PM36 °FClear.12 mph65%30.27 "Hg10 mi
9:30 PM37 °FClear.13 mph60%30.24 "Hg10 mi
9:00 PM37 °FClear.12 mph60%30.24 "Hg10 mi
8:30 PM36 °FClear.10 mph65%30.24 "Hg10 mi
8:00 PM37 °FClear.12 mph60%30.24 "Hg10 mi
7:30 PM37 °FClear.8 mph60%30.24 "Hg10 mi
7:00 PM37 °FClear.9 mph56%30.24 "Hg10 mi
6:30 PM37 °FClear.13 mph56%30.24 "Hg10 mi
6:00 PM39 °FPassing clouds.14 mph52%30.24 "HgN/A
5:30 PM41 °FPartly sunny.12 mph49%30.21 "HgN/A
5:00 PM41 °FSunny.13 mph45%30.21 "Hg10 mi
4:30 PM41 °FSunny.13 mph45%30.21 "Hg10 mi
4:00 PM41 °FSunny.14 mph45%30.21 "Hg10 mi
3:30 PM43 °FSunny.13 mph39%30.21 "Hg10 mi
3:00 PM41 °FSunny.14 mph42%30.21 "Hg10 mi
2:30 PM43 °FSunny.17 mph39%30.18 "Hg10 mi
2:00 PM43 °FSunny.16 mph39%30.18 "Hg10 mi
1:30 PM45 °FSunny.17 mph39%30.18 "Hg10 mi
1:00 PM45 °FSunny.16 mph37%30.18 "Hg10 mi
12:30 PM41 °FScattered clouds.20 mph45%30.18 "HgN/A
12:00 PM43 °FScattered clouds.18 mph46%30.18 "HgN/A
11:30 AM39 °FScattered clouds.17 mph56%30.18 "HgN/A
11:00 AM39 °FPartly sunny.17 mph61%30.18 "HgN/A
10:30 AM39 °FPartly sunny.15 mph61%30.18 "HgN/A
10:00 AM37 °FScattered clouds.17 mph65%30.18 "HgN/A
9:30 AM37 °FScattered clouds.17 mph70%30.15 "HgN/A
9:00 AM37 °FSunny.15 mph75%30.15 "Hg10 mi
8:30 AM36 °FSunny.13 mph81%30.12 "Hg10 mi
8:00 AM36 °FSunny.10 mph87%30.12 "Hg10 mi
7:30 AM34 °FPassing clouds.9 mph81%30.12 "HgN/A
7:00 AM34 °FPassing clouds.5 mph87%30.09 "HgN/A
6:30 AM34 °FPassing clouds.6 mph87%30.09 "HgN/A
6:00 AM34 °FPassing clouds.9 mph87%30.07 "HgN/A
5:30 AM36 °FLight rain. Passing clouds.8 mph87%30.07 "HgN/A
5:00 AM36 °FLight rain. Passing clouds.8 mph87%30.04 "HgN/A
Weather by CustomWeather, © 2015

See weather overviewHow to use our weather pages